Regional Weather Roundup
Issued by NWS Sioux Falls, SD

Home | Current Version | Previous Version | Text Only | Print | Product List | Glossary On
Versions: 1 2 3 4 5 6 7 8 9 10 11 12 13 14 15 16 17 18 19 20 21 22 23 24 25 26 27 28 29 30 31 32 33 34 35 36 37 38 39 40 41 42 43 44 45 46 47 48 49 50
000
ASUS43 KFSD 221010
RWRFSD

WEATHER ROUNDUP FOR SE SOUTH DAKOTA/SW MINNESOTA/NW IOWA
NATIONAL WEATHER SERVICE SIOUX FALLS SD
500 AM CDT TUE JUL 22 2014

NOTE: "FAIR" INDICATES FEW OR NO CLOUDS BELOW 12,000 FEET WITH NO
SIGNIFICANT WEATHER AND OR OBSTRUCTIONS TO VISIBILITY.


SDZ038>040-050-052>070-221100-
SOUTHEAST SOUTH DAKOTA

CITY           SKY/WX    TMP DP  RH WIND       PRES   REMARKS
CHAMBERLAIN    MOCLDY    66  63  90 SE6       29.98R
HURON          LGT RAIN  67  64  90 E17       29.89F
MADISON        LGT RAIN  66  66 100 NW15G25   30.03R
MITCHELL       LGT RAIN  68  65  90 N10       30.02F
SIOUX FALLS    PTCLDY    71  64  78 W5        29.95R
WINNER         FAIR      66  63  90 W7        30.05R
YANKTON        PTCLDY    73  64  73 N29G39    29.96R
$$

MNZ071-072-080-081-089-090-097-098-221100-
SOUTHWEST MINNESOTA

CITY           SKY/WX    TMP DP  RH WIND       PRES   REMARKS
FAIRMONT       PTCLDY    75  72  88 W5        29.87R
LUVERNE        CLEAR     73  66  78 N5        29.92R
MARSHALL       PTCLDY    70  64  83 NE12      29.88F
MONTEVIDEO     MOCLDY    68  64  88 N10       29.93R
PIPESTONE      CLEAR     70  63  78 NE7       29.91F
REDWOOD FALLS  LGT RAIN  71  65  81 NW14G21   29.91R
TRACY          PTCLDY    70  65  84 N8        29.92R
WINDOM         PTCLDY    75  72  88 NW15G22   29.91R FOG
WORTHINGTON    CLEAR     75  68  78 NW12      29.94R
$$

IAZ001>003-012>014-020>022-031-032-NEZ013-014-SDZ071-221100-
NORTHWEST IOWA

CITY           SKY/WX    TMP DP  RH WIND       PRES   REMARKS
CHEROKEE       CLEAR     76  75  97 S5        29.87R
DENISON        PTCLDY    79  73  83 VRB5      29.87S
ESTHERVILLE    CLEAR     73  72  96 NW7       29.87R FOG
LE MARS        CLEAR     73  73 100 CALM      29.89R
ORANGE CITY    CLEAR     79  73  83 N7        29.89R
SHELDON        FOG       72  72 100 N6        29.90R VSB 1/2
SIOUX CITY     CLEAR     77  73  87 NW7       29.87R
SPENCER        CLEAR     73  72  96 NW7       29.88R FOG
STORM LAKE     PTCLDY    75  75 100 SW7       29.90R
$$

ABBREVIATIONS USED IN REMARKS
   TC - TEMPERATURE IN CELSIUS
  WCI - WIND CHILL INDEX
   HX - HEAT INDEX
  VSB - VISIBILITY



USA.gov is the U.S. government's official web portal to all federal, state and local government web resources and services.